STARLINK-11464, 62473

Orbit data source: Space-Track

STARLINK-11464, 62473 is a payload satellite owned by SpaceX/Seattle (US) in LEO that was launched on Tue, 31 Dec 2024 UTC via an FALCON 9 launch vehicle from the Air Force Eastern Test Range (AFETR). Payload-class satellites include a variety of spacecraft equipped with specific instruments for various scientific and technological missions. These include communications satellites like Starlink; space stations such as the ISS; scientific satellites like the Hubble; Earth observation satellites from companies like Planet Labs, Umbra, and HawkEye 360; GPS; miniature CubeSats for education and research; and military/defense satellites.

Loading next visibility...
Identifier
62473, 2024-254M
Orbit
LEO
Country
Flag of USUS
Related business
Manufacturer
SpaceX/Seattle
Mission
Operational Commercial Communications
Bus & Motor
STARLINK V2MD, Unknown motor
Mass
960 kg wet, ~910 kg dry
Launch date (UTC)
2024-12-31 (11 months ago)
Launch vehicle
FALCON 9
Launch site
Air Force Eastern Test Range (AFETR)
Object type
Payload
Rocket body
Debris
Shape & HBR
Box + 2 Pan, 18.1 m
Radar Cross Section
36.964 m², Large (>1 m²)

Expand to show TLE details & history
Last TLE update: 15 hours ago

TLE from 15 hours ago
0 STARLINK-11464
1 62473U 24254M   25340.63108968  .00184872  00000-0  14086-2 0  9995
2 62473  42.9985  64.0726 0002350 256.6532 103.4074 15.70902958 54818
Epoch: 2025-12-06T15:08Z
TLE epoch observation values (Epoch: 2025-12-06T15:08:46.148Z)
Latitude
0.00001°
Longitude
121.22427°
Altitude
356.453 km
Speed
7.697 km/s
True Right ascension
04h 16m 17s
True Declination
0° 00' 00"
Sunlit
Object was in full shadow at epoch
Visualization orbit readout
Latitude
Unknown
Longitude
Unknown
Altitude
Unknown
Speed
Unknown
Apparent Right ascension
Unknown
Apparent Declination
Unknown
Sunlit
N/A
Visualization observer readout
Local Sidereal Time
03:43:50
Azimuth
Unknown
Elevation
Unknown
Doppler factor
Unknown
Orbital elements
Apogee altitude
359.88 km
Perigee altitude
356.714 km
Semi-major axis
6,736.434 km
Eccentricity
0.00024
Inclination
42.9985°
RAAN
64.0726°
Arg. of periapsis
256.6532°
True anomaly
103.43359°
Mean anomaly
103.4074°
Eccentric anomaly
103.4205°
Mean motion
3.92553 °/min
Orbital period
91.71 mins
BSTAR
0.0014086
Loading maneuver chart data...
Computing Atmospheric mass density...
Loading historical data...
Loading historical data...
Loading historical data...
Loading historical data...
Loading historical data...
Loading historical data...
Loading historical data...

Documentation

Showing up to 5 results
|